[[{"header":{"parameterUnit":"m.s-1","parameterCategory":1,"la1":30.2991,"la2":30.254,"lo1":-89.0895,"lo2":-89.0444,"dy":0.0017,"dx":0.0017,"nx":28,"ny":28,"refTime":"2024-06-17T09:00:00:Z","depth":0,"parameterNumber":2,"parameterNumberName":"U-component_of_WINDS"},"data":[0,0,0,0,0,0,0,0,0,0,0,0,0,0,0,0,0,0,0,0,0,0,0,0,0,0,0,0,0,0,0,0,0,0,0,0,0,0,0,0,0,0,0,0,0,0,0,0,0,0,0,0,0,0,0,0,0,0,-7.5292,-7.5291,0,-7.5276,-7.5276,-7.5276,-7.5147,-7.5144,-7.5141,-7.5138,-7.5123,-7.5125,-7.5128,0,0,0,0,0,0,0,0,0,0,0,0,0,-7.5211,-7.5213,-7.5292,-7.5291,-7.5291,-7.5276,-7.5276,-7.5276,-7.5148,-7.5144,-7.514,-7.5137,-7.5122,-7.5125,-7.5128,0,0,0,0,0,0,0,0,0,0,0,0,0,-7.5226,-7.5214,-7.5292,-7.5226,-7.5219,-7.5276,-7.5276,-7.5276,-7.5149,-7.5144,-7.5139,-7.5135,-7.5121,-7.5124,-7.5128,-7.5247,0,0,-7.514,-7.5142,0,0,0,0,0,0,0,0,-7.5225,-7.5229,-7.5235,-7.523,-7.5224,-7.5209,-7.5242,-7.5266,-7.515,-7.5176,-7.5138,-7.5132,-7.5155,-7.5156,-7.5163,-7.5246,-7.5246,-7.514,-7.5143,-7.5144,-7.5145,0,0,0,0,0,0,0,-7.5225,-7.5229,-7.5285,-7.5236,-7.5228,-7.5197,-7.5194,-7.5246,-7.5192,-7.5173,-7.5164,-7.5164,-7.5151,-7.516,-7.5162,-7.5245,-7.514,-7.5143,-7.5146,-7.5147,-7.5425,-7.5429,0,0,0,0,0,0,-7.5233,-7.5229,-7.5286,-7.5285,-7.5213,-7.5202,-7.5199,-7.5218,-7.5191,-7.5183,-7.5168,-7.5158,-7.5156,-7.5158,-7.5161,-7.5296,-7.5144,-7.5148,-7.515,-7.5419,-7.5426,-7.5431,0,0,0,0,0,0,-7.5231,-7.5239,-7.5286,-7.5254,-7.5258,-7.5209,-7.5232,-7.5221,-7.5229,-7.5187,-7.5177,-7.5187,-7.5152,-7.5156,-7.5226,-7.5294,-7.5149,-7.5153,-7.5414,-7.5421,-7.5428,-7.557,0,0,0,0,0,0,-7.523,-7.5239,-7.5283,-7.5256,-7.526,-7.5352,-7.5236,-7.5224,-7.5236,-7.5223,-7.5202,-7.5194,-7.5149,-7.5221,-7.523,-7.5297,-7.5156,-7.5407,-7.5417,-7.5426,-7.5559,-7.5581,-7.5601,0,0,0,0,0,-7.5227,-7.5324,-7.5286,-7.5294,-7.5315,-7.5356,-7.5358,-7.5304,-7.5242,-7.5286,-7.5259,-7.5195,-7.5287,-7.523,-7.5239,-7.5307,-7.5402,-7.5414,-7.5425,-7.5549,-7.5577,-7.56,0,0,0,0,0,0,-7.536,-7.5319,-7.5277,-7.5368,-7.5367,-7.5334,-7.5388,-7.5335,-7.5351,-7.5337,-7.5269,-7.5266,-7.5347,-7.5335,-7.5272,-7.5421,-7.5333,-7.5347,-7.5425,-7.5451,-7.5471,-7.5471,-7.5159,0,0,0,0,0,-7.54,-7.5437,-7.54,-7.5484,-7.5485,-7.5438,-7.5454,-7.5412,-7.5408,-7.5406,-7.5384,-7.5383,-7.5411,-7.5431,-7.5455,-7.5558,-7.5551,-7.561,-7.5631,-7.5649,-7.566,-7.5712,-7.5738,-7.5469,-7.5468,-7.5468,0,0,-7.5483,-7.5465,-7.5493,-7.551,-7.5504,-7.5544,-7.5438,-7.5484,-7.5513,-7.5413,-7.5477,-7.5463,-7.5457,-7.5544,-7.5581,-7.5536,-7.5734,-7.5663,-7.5677,-7.5679,-7.5727,-7.5752,-7.5775,-7.5476,-7.5475,-7.5474,0,0,-7.5652,-7.5644,-7.5712,-7.5709,-7.5701,-7.5669,-7.5686,-7.5662,-7.5648,-7.5712,-7.5638,-7.5672,-7.5723,-7.5721,-7.5727,-7.5899,-7.584,-7.5909,-7.6017,-7.6069,-7.609,-7.6108,-7.6167,-7.619,-7.5922,-7.5922,-7.5922,0,-7.5755,-7.5812,-7.5754,-7.5805,-7.5815,-7.5728,-7.5796,-7.5796,-7.5797,-7.5806,-7.5756,-7.5817,-7.5807,-7.5892,-7.5934,-7.5943,-7.5959,-7.5909,-7.6092,-7.611,-7.6126,-7.6181,-7.6204,-7.593,-7.5929,-7.5928,-7.5928,0,-7.5938,-7.5979,-7.6035,-7.6038,-7.6054,-7.6114,-7.6066,-7.609,-7.6048,-7.6021,-7.6088,-7.6073,-7.6092,-7.611,-7.607,-7.619,-7.6162,-7.6104,-7.6013,-7.6161,-7.6211,-7.6232,-7.5942,-7.5939,-7.5937,-7.5935,0,0,-7.6187,-7.6159,-7.618,-7.618,-7.6166,-7.6197,-7.6254,-7.6272,-7.6293,-7.6298,-7.6342,-7.6389,-7.6334,-7.6341,-7.63,-7.6347,-7.6482,-7.6282,-7.6281,-7.6317,-7.6611,-7.6652,-7.6678,-7.6444,-7.6448,-7.6451,-7.661,0,-7.6348,-7.6441,-7.6392,-7.6492,-7.6528,-7.6448,-7.6497,-7.6494,-7.6472,-7.65,-7.6475,-7.6508,-7.6435,-7.6439,-7.6481,-7.6456,-7.6539,-7.6445,-7.6483,-7.6485,-7.6483,-7.6705,-7.6748,-7.6899,-7.663,-7.6633,-7.6636,0,-7.6547,-7.6559,-7.6663,-7.6643,-7.6656,-7.6701,-7.6714,-7.6743,-7.6738,-7.6719,-7.6728,-7.6677,-7.6731,-7.6646,-7.6718,-7.6655,-7.6669,-7.666,-7.6664,-7.6662,-7.6567,-7.6705,-7.6946,-7.6967,-7.6667,-7.6665,-7.6662,0,-7.6714,-7.6758,-7.6825,-7.6828,-7.6807,-7.684,-7.6833,-7.6824,-7.6839,-7.6851,-7.686,-7.6879,-7.6889,-7.6905,-7.686,-7.6802,-7.6939,-7.685,-7.6922,-7.6924,-7.6951,-7.6949,-7.7193,-7.6967,-7.6967,-7.6966,-7.6966,0,-7.6896,-7.6962,-7.69,-7.6941,-7.7012,-7.6956,-7.7029,-7.7013,-7.7007,-7.7043,-7.6977,-7.7013,-7.6953,-7.6983,-7.695,-7.7014,-7.702,-7.7005,-7.6994,-7.7008,-7.701,-7.7013,-7.7,-7.6972,-7.6971,-7.697,-7.6969,0,-7.7093,-7.7054,-7.7122,-7.7097,-7.7093,-7.7146,-7.7125,-7.7162,-7.7137,-7.7184,-7.7192,-7.7152,-7.7184,-7.7142,-7.717,-7.7147,-7.7235,-7.7211,-7.7236,-7.7227,-7.7301,-7.7294,-7.7553,-7.7583,-7.7341,-7.7344,-7.7346,0,-7.721,-7.7258,-7.7239,-7.7259,-7.7256,-7.7289,-7.7303,-7.7251,-7.7269,-7.7269,-7.7306,-7.7333,-7.7351,-7.7406,-7.7379,-7.7401,-7.7374,-7.7464,-7.7377,-7.739,-7.7372,-7.7368,-7.7372,-7.748,-7.7483,-7.7486,-7.7488,0,-7.742,-7.7399,-7.7422,-7.744,-7.7459,-7.747,-7.7476,-7.7497,-7.7442,-7.7466,-7.7498,-7.7512,-7.7541,-7.7568,-7.7583,-7.7576,-7.7523,-7.7516,-7.7533,-7.7546,-7.7557,-7.7549,-7.728,-7.7509,-7.7507,-7.7505,-7.7504,-7.7503,-7.7578,-7.7617,-7.761,-7.7638,-7.7638,-7.7645,-7.7678,-7.7658,-7.7683,-7.7702,-7.7671,-7.7711,-7.7707,-7.7721,-7.772,-7.7751,-7.7712,-7.7738,-7.7744,-7.775,-7.776,-7.7557,-7.7754,-7.7753,-7.7753,-7.7752,-7.7752,0,-7.7782,-7.7774,-7.7801,-7.7811,-7.7834,-7.7784,-7.7789,-7.7811,-7.7847,-7.7847,-7.7867,-7.7904,-7.793,-7.7907,-7.7928,-7.7957,-7.7934,-7.7965,-7.796,-7.7959,-7.7795,-7.7776,-7.7983,-7.7983,-7.7983,-7.7983,-7.7983,-7.7983,-7.789,-7.7953,-7.7932,-7.7994,-7.7986,-7.8024,-7.8031,-7.8038,-7.8038,-7.8082,-7.8103,-7.8088,-7.8079,-7.81,-7.8122,-7.8114,-7.8124,-7.8163,-7.8147,-7.7993,-7.797,-7.7948,-7.793,-7.8167,-7.8167,-7.8307,-7.8309,-7.831]},{"header":{"parameterUnit":"m.s-1","parameterCategory":1,"la1":30.2991,"la2":30.254,"lo1":-89.0895,"lo2":-89.0444,"dy":0.0017,"dx":0.0017,"nx":28,"ny":28,"refTime":"2024-06-17T09:00:00:Z","depth":0,"parameterNumber":3,"parameterNumberName":"V-component_of_WINDS"},"data":[0,0,0,0,0,0,0,0,0,0,0,0,0,0,0,0,0,0,0,0,0,0,0,0,0,0,0,0,0,0,0,0,0,0,0,0,0,0,0,0,0,0,0,0,0,0,0,0,0,0,0,0,0,0,0,0,0,0,3.9077,3.9077,0,3.91,3.91,3.91,3.91,3.91,3.91,3.9099,3.9121,3.9121,3.9122,0,0,0,0,0,0,0,0,0,0,0,0,0,3.903,3.903,3.9076,3.9077,3.9077,3.91,3.91,3.91,3.91,3.91,3.9099,3.9099,3.912,3.9121,3.9122,0,0,0,0,0,0,0,0,0,0,0,0,0,3.9051,3.9031,3.9076,3.908,3.908,3.91,3.91,3.9101,3.91,3.91,3.9099,3.9099,3.912,3.9121,3.9122,3.9139,0,0,3.9126,3.9127,0,0,0,0,0,0,0,0,3.905,3.9053,3.9079,3.908,3.908,3.9097,3.9091,3.9113,3.91,3.9093,3.9099,3.9099,3.9113,3.9115,3.912,3.914,3.9141,3.9126,3.9127,3.9128,3.9128,0,0,0,0,0,0,0,3.9048,3.9052,3.9086,3.9079,3.908,3.9079,3.9082,3.9096,3.9105,3.9093,3.9093,3.9096,3.9113,3.9119,3.912,3.9142,3.9126,3.9127,3.9128,3.9129,3.9178,3.9178,0,0,0,0,0,0,3.9047,3.9051,3.9085,3.9086,3.9064,3.9081,3.9084,3.9092,3.9105,3.9106,3.9097,3.9096,3.9117,3.9119,3.9121,3.9142,3.9128,3.9129,3.913,3.9177,3.9178,3.9179,0,0,0,0,0,0,3.9046,3.905,3.9084,3.9069,3.9073,3.9082,3.9091,3.9093,3.9098,3.9107,3.9109,3.9101,3.9116,3.9119,3.9135,3.9143,3.9129,3.9131,3.9177,3.9178,3.9178,3.9184,0,0,0,0,0,0,3.9044,3.9049,3.9056,3.9069,3.9074,3.9098,3.9092,3.9093,3.9101,3.91,3.9112,3.9113,3.9116,3.9133,3.9136,3.9144,3.9132,3.9176,3.9177,3.9178,3.9184,3.9185,3.9187,0,0,0,0,0,3.9043,3.9056,3.9056,3.9061,3.9083,3.9099,3.9101,3.9106,3.9101,3.9108,3.9114,3.9113,3.9142,3.9135,3.9138,3.9147,3.9175,3.9177,3.9178,3.9183,3.9185,3.9187,0,0,0,0,0,0,3.9043,3.9058,3.9058,3.9076,3.9087,3.9099,3.9107,3.9108,3.9118,3.9117,3.9121,3.9124,3.914,3.9145,3.9137,3.9165,3.9158,3.916,3.9161,3.9163,3.9164,3.9163,3.9133,0,0,0,0,0,3.9045,3.9058,3.907,3.9085,3.909,3.9098,3.9105,3.9108,3.9117,3.9121,3.9128,3.9138,3.9149,3.9156,3.9167,3.9185,3.9187,3.9192,3.9194,3.9195,3.9197,3.9207,3.9209,3.9183,3.9183,3.9183,0,0,3.905,3.9059,3.9067,3.9085,3.9093,3.9105,3.9101,3.9114,3.9123,3.9123,3.9139,3.9144,3.9155,3.9172,3.918,3.9177,3.9205,3.9197,3.9198,3.9199,3.9208,3.9211,3.9213,3.9183,3.9183,3.9183,0,0,3.9064,3.9073,3.9087,3.9096,3.9108,3.9114,3.9117,3.913,3.9134,3.915,3.915,3.9161,3.918,3.9188,3.9194,3.9214,3.9213,3.9217,3.9225,3.9235,3.9237,3.9239,3.9246,3.9249,3.9218,3.9218,3.9219,0,3.9068,3.9088,3.9094,3.9107,3.9115,3.9117,3.9131,3.9139,3.9154,3.9159,3.9156,3.9181,3.9188,3.9207,3.9212,3.9217,3.9221,3.9215,3.9237,3.9239,3.9241,3.9247,3.925,3.9219,3.9219,3.9219,3.9219,0,3.9092,3.9106,3.9115,3.9131,3.914,3.9154,3.9162,3.917,3.9172,3.9178,3.9194,3.9203,3.9216,3.9221,3.9223,3.9241,3.9239,3.9236,3.9229,3.9243,3.925,3.9252,3.922,3.9219,3.9219,3.9219,0,0,3.9106,3.9127,3.913,3.9138,3.9153,3.9163,3.9177,3.9191,3.9198,3.9209,3.922,3.9237,3.9236,3.9243,3.9246,3.9254,3.9269,3.9251,3.9251,3.9254,3.929,3.9292,3.9295,3.9269,3.927,3.927,3.9289,0,3.9123,3.9149,3.9155,3.9177,3.9189,3.9192,3.9204,3.9214,3.922,3.9231,3.9237,3.925,3.9246,3.9251,3.9259,3.9266,3.9277,3.9264,3.9279,3.928,3.9277,3.9298,3.93,3.9317,3.9292,3.9292,3.9292,0,3.9145,3.9158,3.9182,3.9196,3.9202,3.9212,3.9226,3.9237,3.9249,3.9252,3.9261,3.9263,3.9277,3.9271,3.929,3.9282,3.9288,3.9292,3.9293,3.9294,3.9287,3.93,3.9323,3.9325,3.9296,3.9296,3.9296,0,3.9154,3.9177,3.9194,3.9201,3.9218,3.9226,3.9233,3.9244,3.9252,3.9264,3.927,3.9282,3.9289,3.9299,3.9304,3.9299,3.9323,3.9317,3.9326,3.9326,3.9331,3.9331,3.9355,3.9335,3.9335,3.9335,3.9335,0,3.9172,3.9186,3.9199,3.9209,3.9225,3.9232,3.9248,3.9255,3.9265,3.9277,3.9279,3.929,3.9297,3.9308,3.9312,3.9328,3.9331,3.9334,3.9335,3.9333,3.9333,3.9337,3.9336,3.9336,3.9336,3.9336,3.9336,0,3.9184,3.9193,3.9212,3.9227,3.9231,3.9243,3.9255,3.9265,3.9272,3.9286,3.929,3.93,3.9314,3.932,3.9337,3.934,3.9357,3.9357,3.9354,3.9354,3.9363,3.9362,3.9391,3.9396,3.9373,3.9373,3.9373,0,3.9195,3.9206,3.9223,3.9232,3.924,3.9253,3.9262,3.927,3.9279,3.9293,3.9302,3.9316,3.9328,3.9349,3.9357,3.937,3.937,3.938,3.9372,3.9371,3.9371,3.937,3.9371,3.9381,3.9381,3.9381,3.9381,0,3.9213,3.9217,3.9231,3.9246,3.9257,3.9269,3.9281,3.9288,3.9297,3.9307,3.9322,3.9331,3.9349,3.9363,3.9376,3.9383,3.9384,3.9384,3.9387,3.9386,3.9383,3.9385,3.9357,3.9383,3.9383,3.9383,3.9383,3.9383,3.9225,3.9236,3.925,3.9265,3.9275,3.9286,3.9297,3.9305,3.9318,3.9334,3.9337,3.9353,3.9364,3.9383,3.939,3.9402,3.94,3.9404,3.9405,3.9406,3.9406,3.9382,3.9404,3.9404,3.9404,3.9404,3.9404,0,3.9244,3.9253,3.9267,3.9285,3.9297,3.9298,3.9311,3.9321,3.9335,3.9346,3.9358,3.9375,3.9389,3.9399,3.9412,3.942,3.9421,3.9423,3.9423,3.9424,3.9407,3.9404,3.9423,3.9422,3.9422,3.9422,3.9422,3.9422,3.9255,3.9273,3.9279,3.9302,3.9312,3.9328,3.9336,3.9346,3.9355,3.9375,3.9387,3.9393,3.9404,3.9418,3.9431,3.9433,3.9438,3.9441,3.9443,3.9427,3.9425,3.9423,3.942,3.9442,3.9442,3.9459,3.9459,3.9459]}]]